Location: Sungai Bunut
(2.6333°N, 113.7333°E)
Time: 20:37:25
(UTC+00:00)

Vanguard 3 - Pass Details

Date: 10 December 2023
Orbit: 508 x 3239 km, 33.4° (Epoch: 24 February)

Event Time Altitude Azimuth Distance (km) Brightness Sun altitude
Rises 22:00:18 0° 274° (W) 2,608 - -5.1°
Exits shadow 22:01:17 - 268° (W) 2,258 8.9 -4.9°
Reaches altitude 10° 22:03:05 10° 250° (WSW) 1,716 8.4 -4.4°
Maximum altitude 22:05:27 16° 210° (SSW) 1,447 8.4 -3.9°
Drops below altitude 10° 22:08:03 10° 171° (S) 1,928 9.6 -3.3°
Sets 22:11:30 0° 149° (SSE) 3,130 11.2 -2.5°
